This is the latest recevied weather packets stored in our database for station/object N5JXS. If no packets are shown the sender has not sent any weather packets the latest 10 day(s).
| Time | Temp. | Humidity | Pressure | Rain* | Wind** | Luminosity | Snow |
|---|---|---|---|---|---|---|---|
| 1788123572 | 24.44° C | 39% | 1025.3 hPa | 0 mm | - | 108 W/m² | - |
| 1788123271 | 24.44° C | 38% | 1025.2 hPa | 0 mm | - | 117 W/m² | - |
| 1788122966 | 24.44° C | 38% | 1025.1 hPa | 0 mm | - | 134 W/m² | - |
| 1788122665 | 25° C | 37% | 1025.3 hPa | 0 mm | - | 155 W/m² | - |
| 1788122360 | 25° C | 37% | 1025.2 hPa | 0 mm | - | 164 W/m² | - |
| 1788122056 | 25° C | 38% | 1025.3 hPa | 0 mm | - | 165 W/m² | - |
| 1788121750 | 24.44° C | 37% | 1025.2 hPa | 0 mm | - | 155 W/m² | - |
| 1788121445 | 25° C | 37% | 1025.2 hPa | 0 mm | - | 177 W/m² | - |
| 1788121141 | 25° C | 37% | 1025.3 hPa | 0 mm | - | 217 W/m² | - |
| 1788120834 | 25° C | 37% | 1025.2 hPa | 0 mm | - | 255 W/m² | - |
| 1788120530 | 25° C | 37% | 1025.1 hPa | 0 mm | - | 228 W/m² | - |
| 1788120229 | 25° C | 37% | 1025.3 hPa | 0 mm | - | 228 W/m² | - |
| 1788119925 | 25° C | 38% | 1025.3 hPa | 0 mm | - | 212 W/m² | - |
| 1788119624 | 25° C | 37% | 1025.2 hPa | 0 mm | - | 215 W/m² | - |
| 1788119323 | 25° C | 36% | 1025.3 hPa | 0 mm | - | 250 W/m² | - |
| 1788119016 | 25° C | 36% | 1025.1 hPa | 0 mm | - | 216 W/m² | - |
| 1788118712 | 25.56° C | 36% | 1025.3 hPa | 0 mm | - | 211 W/m² | - |
| 1788118406 | 25.56° C | 36% | 1025.6 hPa | 0 mm | - | 225 W/m² | - |
| 1788118102 | 25.56° C | 36% | 1025.5 hPa | 0 mm | - | 265 W/m² | - |
| 1788117801 | 25.56° C | 36% | 1025.5 hPa | 0 mm | - | 355 W/m² | - |
| 1788117497 | 25.56° C | 37% | 1025.3 hPa | 0 mm | - | 419 W/m² | - |
| 1788117197 | 25.56° C | 36% | 1025.7 hPa | 0 mm | - | 372 W/m² | - |
| 1788116893 | 25.56° C | 35% | 1025.5 hPa | 0 mm | - | 360 W/m² | - |
| 1788116593 | 25° C | 37% | 1025.7 hPa | 0 mm | - | 301 W/m² | - |
| 1788116291 | 25.56° C | 36% | 1025.6 hPa | 0 mm | - | 285 W/m² | - |
* Rain latest hour (hover to see other rain measurements)
** Current wind speed in m/s (hover to see current wind gust speed)